Regional Weather Roundup
Issued by NWS

Home | Current Version | Previous Version | Graphics & Text | Print | Product List | Glossary On
Versions: 1 2 3 4 5 6 7 8 9 10 11 12 13 14 15 16 17 18 19 20 21 22 23 24 25 26 27
000
ASUS45 KBOU 021907
RWRCO

WEATHER ROUNDUP FOR COLORADO
NATIONAL WEATHER SERVICE DENVER/BOULDER CO
1200 PM MST FRI DEC 02 2016

NOTE: "FAIR" INDICATES FEW OR NO CLOUDS BELOW 12000 FEET WITH NO
SIGNIFICANT WEATHER AND/OR OBSTRUCTIONS TO VISIBILITY.

COZ001>005-013-030-031-022000-
...NORTHWEST COLORADO...

CITY           SKY/WX    TMP DP  RH WIND       PRES   REMARKS
CRAIG          CLOUDY    22  15  75 VRB3      30.14F
HAYDEN         FAIR      19  12  73 W6        30.10F WCI  11
MEEKER         PTSUNNY   24  19  81 SW8       30.10F WCI  15
MOUNT WERNER   NOT AVBL
STEAMBOAT SPGS PTSUNNY   23  12  63 CALM      30.07F
WALDEN           N/A    N/A N/A N/A CALM      30.07F
$$

COZ006>008-011-022000-
...WEST CENTRAL VALLEYS...

CITY           SKY/WX    TMP DP  RH WIND       PRES   REMARKS
GRAND JUNCTION CLOUDY    36  22  56 S5        30.09F
MONTROSE       CLOUDY    32  18  56 N6        30.09F WCI  26
EAGLE          MOSUNNY   32  18  55 CALM      30.08F
RIFLE          CLOUDY    33  20  58 CALM      30.09F
DELTA          PTSUNNY   35  18  50 CALM      30.10F
NUCLA          PTSUNNY   32  18  55 CALM      30.08F
$$

COZ017>023-064>068-022000-
...SOUTHWEST COLORADO...

CITY           SKY/WX    TMP DP  RH WIND       PRES   REMARKS
DURANGO        PTSUNNY   36  15  42 VRB6      29.99F
CORTEZ         CLOUDY    40  18  41 CALM      29.98F
PAGOSA SPRINGS CLOUDY    32  19  57 CALM      30.02F
TELLURIDE      CLOUDY    25  17  71 W8        29.99F WCI  16
WOLF CREEK PAS SNOW      12  12 100 S8        30.02S VSB 1/2 WCI   1
$$

COZ009-010-012-014-032>034-037-058>063-022000-
...CENTRAL COLORADO...

CITY           SKY/WX    TMP DP  RH WIND       PRES   REMARKS
ASPEN          PTSUNNY   27  15  61 N6        30.01F WCI  20
BUENA VISTA    LGT SNOW  21  17  84 SE7       30.09F WCI  12
COPPER MTN     PTSUNNY   19   5  53 MISG      29.95F
BERTHOUD PASS  CLOUDY     3  -9  55 SE29G45   29.95S WCI -21
COTTONWOOD PAS LGT SNOW  21  18  86 E3        30.03F
GUNNISON       FAIR      20  14  77 SE3       30.03F
KREMMLING      PTSUNNY   30  19  64 N3        30.07F
LEADVILLE      PTSUNNY   16   9  74 S17       29.97F WCI   0
MONARCH PASS     N/A      9   3  78 NE7       30.08F WCI  -3
SALIDA         CLOUDY    21  16  83 CALM      30.19F VSB 1
SUNLIGHT       LGT SNOW N/A N/A N/A CALM      30.02S
WILKERSON PASS LGT SNOW  12   9  85 CALM      30.04F VSB 1
$$

COZ069>075-022000-
...SAN LUIS VALLEY/SANGRE DE CRISTO MOUNTAINS...

CITY           SKY/WX    TMP DP  RH WIND       PRES   REMARKS
ALAMOSA        LGT SNOW  22  18  85 CALM      30.06F VSB 3/4
LA VETA PASS   LGT SNOW  16  12  86 SW3       30.03F
SAGUACHE       LGT SNOW  23  19  86 CALM      30.06F
$$

COZ035-036-038>040-022000-
...NORTHERN COLORADO FRONT RANGE...

CITY           SKY/WX    TMP DP  RH WIND       PRES   REMARKS
DENVER INTL AP CLOUDY    32  19  58 E9        30.18F WCI  24
DMNS CITY PARK   N/A     33  18  54 E14       30.18F WCI  23
AURORA         CLOUDY    32  18  55 SE12      30.18F WCI  23
FRONT RANGE AP CLOUDY    34  21  60 E8        30.19F WCI  27
ERIE MUNI ARPT FLURRIES  32  22  65 SE3       30.20S
BOULDER MUN AP FLURRIES  32  23  69 SE7       30.18F WCI  26
CENTENNIAL     CLOUDY    30  11  45 E7        30.17S WCI  23
BROOMFIELD     FLURRIES  32  18  55 SE6       30.18F WCI  26
FORT COLLINS   FAIR      34  19  55 SE5       30.20F WCI  30
LONGMONT       CLOUDY    35  24  63 SE3       30.21F
$$

COZ041-046-047-076>085-087-088-022000-
...PIKES PEAK/PALMER DIVIDE AND SOUTHERN FOOTHILLS...

CITY           SKY/WX    TMP DP  RH WIND       PRES   REMARKS
COLO. SPRINGS  SNOW      28  22  78 NE3       30.17F VSB 1/2
A. F. ACADEMY  LGT SNOW  25  20  83 S5        30.14F WCI  19
SCHRIEVER AFB  NOT AVBL
ELLICOTT       PTSUNNY  N/A N/A N/A SE17G24   30.15F
FALCON         LGT SNOW  26  22  85 SE12      30.16F VSB 1   WCI  15
FORT CARSON    LGT SNOW  28  23  80 NW7       30.16F WCI  21
LIMON          CLOUDY    33  15  47 S6        30.20S WCI  28
MONUMENT HILL  CLOUDY    27  16  63 S12       30.15F WCI  16
TRINIDAD       CLOUDY    32  15  49 VRB6      30.15F WCI  26
$$

COZ042>045-048>051-090-091-022000-
...NORTHEAST COLORADO...

CITY           SKY/WX    TMP DP  RH WIND       PRES   REMARKS
GREELEY ARPT   FAIR      33  17  51 CALM      30.21F
AKRON          CLOUDY    37  17  44 VRB7      30.20S
BURLINGTON     CLOUDY    38  16  40 CALM      30.22R
WRAY           NOT AVBL
STERLING       FAIR      37  23  56 CALM      30.21F
HOLYOKE        FAIR      43  25  49 CALM      30.23S
FORT MORGAN    PTSUNNY   36  20  51 CALM      30.21F
$$

COZ086-089-092>099-022000-
...SOUTHEAST COLORADO...

CITY           SKY/WX    TMP DP  RH WIND       PRES   REMARKS
PUEBLO         CLOUDY    32  12  43 CALM      30.19F
LA JUNTA       PTSUNNY   32  15  49 CALM      30.21F
LAMAR          CLOUDY    36  16  44 NW5       30.21F
SPRINGFIELD      N/A     42  13  30 E12G18    30.17F
$$




USA.gov is the U.S. government's official web portal to all federal, state and local government web resources and services.